Location: Banska Bystrica
(48.7333°N, 19.1500°E)
Time: 15:49:34
(UTC+02:00)

ISS - Visible Passes

Search period start: 25 September 2022 00:00
Search period end: 05 October 2022 00:00
Orbit: 414 x 417 km, 51.6° (Epoch: 25 September)

Date Brightness Start Highest point End Pass type
(mag) Time Alt. Az. Time Alt. Az. Time Alt. Az.
25 Sep -3.5 20:35:04 10° WNW 20:38:20 60° N 20:38:20 60° N visible
26 Sep -3.3 19:46:23 10° WNW 19:49:41 52° N 19:51:30 23° ENE visible
26 Sep -1.1 21:23:10 10° WNW 21:24:22 20° WNW 21:24:22 20° WNW visible
27 Sep -3.1 18:57:40 10° WNW 19:00:57 49° N 19:04:14 10° ENE visible
27 Sep -3.6 20:34:30 10° WNW 20:37:32 70° WNW 20:37:32 70° WNW visible
28 Sep -3.7 19:45:48 10° WNW 19:49:10 71° NNE 19:50:42 29° E visible
28 Sep -0.9 21:22:43 10° W 21:23:35 16° W 21:23:35 16° W visible
29 Sep -3.5 18:57:05 10° WNW 19:00:25 58° NNE 19:03:44 10° E visible
29 Sep -2.9 20:33:54 10° WNW 20:36:46 43° SW 20:36:46 43° SW visible
30 Sep -3.6 19:45:08 10° WNW 19:48:28 67° SSW 19:50:00 29° SE visible
30 Sep -0.5 21:22:49 10° WSW 21:22:53 10° WSW 21:22:53 10° WSW visible
01 Oct -3.8 18:56:23 10° WNW 18:59:45 88° NNE 19:03:07 10° ESE visible
01 Oct -1.8 20:33:31 10° W 20:36:09 22° SW 20:36:09 22° SW visible
02 Oct -2.4 19:44:31 10° W 19:47:33 33° SW 19:49:30 18° SSE visible
03 Oct -3.0 18:55:37 10° WNW 18:58:53 49° SSW 19:02:08 10° SE visible
04 Oct -1.1 19:44:20 10° W 19:46:24 15° SW 19:48:28 10° S visible
